RH
24 23 26 25 22 21 18 15 14 20 23 21 19 22 23 28 28 31 31 30 30 31 34 53 66 70 76 77 76 68 64 71 83 73 60 52 55 65 63 62 71 71 70 72
18 24 25 22 10 21 20 19 18 22 23 19 25 21 26 32 35 34 34 35 36 44 55 62 65 64 63 33 37 52 53 50 51 59 59 61 63 61 65 68 71 81 84 89
28 29 8 15 28 26 25 23 33 32 30 27 27 26 29 34 39 40 41 45 51 51 51 58 62 55 43 40 40 47 54 58 60 61 69 64 62 61 66 79 97 93 92 96
32 30 30 30 32 28 29 38 30 32 29 24 24 22 29 35 40 45 48 49 54 58 63 69 43 40 45 50 56 57 57 59 62 64 62 62 64 71 85 92 94 64 53 54
35 36 37 36 41 23 40 34 27 35 32 27 25 26 31 33 38 47 55 59 62 66 73 63 51 51 50 54 57 58 60 62 64 64 64 67 78 85 81 65 56 55 45 58
38 28 38 45 39 25 32 43 38 38 36 37 26 28 44 37 46 49 59 67 72 74 74 65 60 62 53 54 56 58 65 71 77 78 78 79 75 57 50 51 49 51 61 66
38 42 44 27 45 45 38 38 38 53 49 50 36 29 45 46 45 51 62 70 77 76 80 84 88 89 89 74 62 54 53 73 79 78 75 63 58 63 68 64 62 62 61 60
34 45 44 40 39 44 41 41 49 54 61 42 31 24 45 52 52 54 59 66 72 78 79 80 78 86 89 96 77 73 52 55 67 72 69 69 72 69 74 58 53 57 56 44
37 44 35 27 33 42 47 47 34 44 55 48 26 41 50 54 57 57 60 64 66 71 75 82 94 93 91 95 83 71 79 80 78 71 76 75 69 66 60 57 58 45 25 13
41 45 35 23 49 51 40 35 42 46 63 46 26 27 53 54 60 70 54 58 61 66 68 86 86 86 90 78 75 86 86 93 98 100 97 86 73 59 55 46 27 13 9 8
31 44 44 47 44 43 46 44 50 40 44 50 50 34 39 42 50 54 56 60 66 72 65 67 89 97 93 93 78 88 87 98 100 86 90 72 51 44 36 20 12 11 9 6
12 39 36 34 29 20 44 46 47 51 44 50 55 46 48 50 53 62 66 67 76 75 68 77 78 76 83 88 90 82 75 76 76 91 80 51 41 33 18 15 14 12 10 9
16 54 46 40 57 53 41 45 47 55 56 52 61 48 45 53 60 77 78 70 80 78 81 78 79 76 67 68 65 62 74 78 84 83 73 53 51 35 34 24 20 14 15 25
12 51 45 44 38 38 37 37 38 40 49 58 58 52 52 53 76 78 76 82 86 79 84 90 78 66 56 46 49 61 79 94 96 98 91 64 56 46 45 44 30 29 52 69
16 44 42 33 38 46 44 43 44 43 42 43 44 44 50 64 70 74 80 72 75 75 86 93 73 52 38 35 61 84 93 96 88 86 97 85 94 87 56 56 55 44 77 87
22 49 28 27 49 48 38 49 51 47 43 43 50 53 55 69 73 75 61 70 77 70 87 80 47 30 38 64 96 98 95 99 84 75 95 93 84 97 97 89 42 70 92 92
29 28 32 37 35 32 62 54 49 50 50 53 54 62 70 84 81 76 68 74 74 98 82 41 32 81 100 93 78 86 94 96 80 72 98 71 82 98 89 53 32 74 89 94
31 33 36 39 40 75 57 53 58 58 55 56 56 73 92 91 74 72 76 85 95 74 36 33 86 89 95 70 87 85 71 60 76 94 95 61 88 76 95 51 47 64 95 90
49 38 41 52 77 49 60 68 58 58 52 69 77 81 76 72 73 80 93 96 68 38 45 84 81 87 76 90 88 79 62 71 91 87 92 56 96 94 93 84 78 76 97 74
37 42 50 73 90 76 58 68 72 68 74 95 82 79 84 80 81 98 85 79 56 38 51 77 81 81 83 81 81 68 77 82 76 81 72 71 96 94 92 99 93 95 77 99
42 49 58 88 97 76 59 75 60 77 90 84 85 79 82 76 87 88 79 61 56 82 82 80 73 73 75 77 71 84 76 74 92 67 68 69 77 98 83 88 89 88 84 85
44 61 66 90 96 89 78 85 88 79 88 96 90 92 74 67 94 75 68 70 88 86 78 70 69 71 67 62 83 93 87 71 53 61 60 60 65 69 72 89 82 93 78 49
61 59 67 73 55 78 84 90 84 84 85 95 99 89 73 60 54 64 67 92 92 82 70 63 76 54 66 98 100 97 77 60 56 60 70 75 74 79 91 76 51 38 39 49
58 49 62 75 58 72 87 98 96 89 89 90 97 90 69 66 72 80 95 91 79 61 42 57 39 74 87 85 95 74 49 59 60 68 76 79 82 90 32 18 32 32 37 56
44 51 53 75 71 87 97 89 80 92 97 98 97 86 70 72 87 86 58 46 42 42 50 37 81 86 58 63 50 38 51 57 64 71 75 81 54 19 20 29 25 29 46 54
30 38 59 66 87 92 94 98 98 90 99 98 93 75 66 67 44 32 21 18 19 22 26 31 44 41 31 36 39 38 54 61 73 75 77 30 19 20 25 22 28 36 44 54
Wind_Speed
4 6 2 4 4 6 7 5 3 9 2 9 8 9 6 4 3 1 5 9 10 8 17 23 23 24 25 23 22 19 21 20 23 27 28 28 29 33 34 32 36 38 41 42
4 2 3 3 6 4 4 4 4 4 9 4 7 9 5 2 3 5 5 9 13 16 19 22 29 30 25 21 19 21 23 24 25 30 31 29 35 35 35 35 40 45 45 43
4 4 2 4 3 3 3 3 2 4 4 9 7 10 10 7 7 12 14 11 10 15 22 25 25 20 15 13 14 16 19 21 22 29 34 37 35 37 37 38 43 47 52 56
3 1 4 1 1 3 3 3 5 7 8 11 16 4 13 13 11 10 12 12 9 8 6 3 11 8 10 13 17 20 25 27 26 29 32 34 37 39 47 49 50 44 42 45
4 3 3 1 3 2 4 10 7 7 10 11 11 10 20 16 12 10 10 9 8 8 6 10 10 15 17 18 21 25 28 32 33 34 35 39 43 43 45 46 47 46 50 47
4 2 1 2 3 4 5 7 7 6 8 6 13 3 6 8 11 9 8 7 5 1 7 11 15 19 23 25 27 24 24 28 34 36 37 40 43 42 43 47 50 49 51 52
6 4 4 5 4 5 7 6 7 3 5 2 2 2 11 11 10 10 6 3 3 5 6 3 4 8 18 25 26 26 26 24 28 34 42 42 43 48 50 48 49 50 49 48
9 6 2 5 4 4 5 5 4 4 5 4 4 3 13 12 11 11 6 1 4 6 11 11 16 16 17 21 30 29 31 31 33 36 43 49 53 50 45 47 48 47 44 45
1 5 3 6 4 6 5 5 3 2 3 3 7 11 12 8 7 6 2 2 3 7 10 10 8 15 22 25 29 35 37 35 34 39 44 48 50 46 45 45 43 43 45 45
2 5 2 5 7 7 7 3 4 4 2 3 10 8 8 6 4 3 3 3 9 9 8 15 16 21 26 33 35 34 40 37 43 44 46 44 43 43 43 42 44 43 45 48
8 3 1 5 4 5 3 3 3 4 2 2 3 2 2 2 5 5 8 10 11 11 17 19 17 18 27 34 40 36 46 42 43 48 44 39 40 40 41 41 44 46 49 48
4 4 3 3 5 3 2 2 3 2 3 4 4 12 7 2 3 6 8 10 13 16 22 22 25 32 36 41 41 50 42 42 46 42 41 37 37 39 39 41 45 48 50 48
6 1 1 7 1 2 4 3 5 6 8 10 8 8 9 14 15 10 7 9 11 19 23 30 31 36 39 41 43 42 42 40 41 41 41 40 37 41 41 44 47 47 46 46
4 2 2 1 6 10 11 12 13 14 13 14 16 19 18 13 15 5 9 9 15 22 28 29 40 39 40 41 43 40 35 36 36 44 39 41 48 49 46 46 44 44 44 42
3 3 3 5 9 9 13 14 14 16 18 20 21 20 17 15 9 11 12 20 23 35 36 38 40 43 43 40 32 32 33 35 36 38 29 42 43 42 52 43 47 44 43 40
1 2 8 11 2 11 20 17 15 15 16 16 14 17 12 10 14 19 27 30 33 40 37 39 41 40 35 33 28 28 31 35 38 48 39 45 50 33 42 35 47 41 38 39
3 3 8 3 15 16 3 4 5 6 7 10 13 14 15 14 18 20 31 36 37 32 39 40 38 29 25 27 31 28 29 34 42 41 47 52 59 48 44 43 44 40 37 34
4 4 5 7 10 3 2 16 14 11 9 9 10 12 9 16 22 30 36 31 28 37 39 36 26 27 26 36 29 32 37 41 36 37 43 53 44 46 34 42 39 43 37 38
5 4 4 2 4 15 5 7 6 11 16 12 12 17 23 25 28 31 29 31 35 36 33 24 26 27 35 29 33 39 45 34 32 33 43 49 44 43 34 42 38 40 38 31
6 7 6 6 2 4 4 8 18 19 15 15 19 20 25 34 32 23 31 32 37 37 30 25 27 30 30 35 39 44 36 37 36 39 41 45 42 33 37 40 33 36 33 29
7 8 11 8 7 10 10 14 13 6 9 18 23 31 32 34 33 32 34 34 31 22 23 26 29 31 36 39 41 36 41 40 39 44 46 41 42 32 41 37 37 34 32 36
6 5 6 5 6 8 9 11 13 15 21 31 32 28 34 34 26 33 31 28 21 24 27 28 32 34 38 39 36 37 41 47 43 37 36 32 32 33 34 34 31 27 35 33
10 14 9 11 10 10 19 23 30 32 32 33 30 37 29 31 30 30 28 21 24 27 29 35 32 39 35 32 34 37 48 47 42 39 34 29 28 28 28 25 26 27 30 28
16 16 20 20 26 20 22 24 29 35 30 33 31 27 29 27 27 24 22 25 30 35 42 37 42 32 33 34 37 44 43 41 39 37 32 29 26 23 20 22 25 27 26 25
22 20 25 23 25 23 26 32 31 28 32 32 27 23 24 25 22 24 31 35 39 41 39 41 32 35 40 37 41 43 41 38 37 32 27 22 19 19 19 20 23 25 25 25
28 32 29 30 24 26 28 32 34 32 35 24 21 22 23 23 28 33 38 39 37 39 39 37 37 40 41 43 43 41 38 36 33 28 22 19 19 17 18 20 23 24 24 25
Wind_Direction
227 245 126 69 23 13 356 19 319 90 232 276 244 237 257 325 304 243 212 205 201 190 201 203 211 220 217 222 239 240 262 276 278 282 282 289 294 298 286 289 293 292 293 299
228 154 258 269 298 354 345 349 274 305 301 228 228 231 194 136 113 146 160 154 177 188 199 214 224 241 246 248 263 262 265 277 281 281 282 285 287 280 278 280 287 293 293 292
49 151 287 120 2 350 238 289 358 295 281 270 264 224 182 154 145 128 129 136 164 209 225 234 242 253 256 264 269 281 287 287 291 283 284 286 284 288 291 288 293 291 292 295
101 87 85 52 33 1 315 219 281 286 276 264 197 290 161 162 146 123 118 138 128 125 125 251 262 246 250 267 286 300 304 300 296 286 286 287 289 291 295 304 303 304 304 296
133 91 55 1 279 297 330 292 284 267 261 272 249 245 167 171 171 147 133 134 159 166 188 248 274 275 275 287 304 310 303 298 296 291 287 290 293 295 298 301 301 303 305 310
135 93 115 13 337 9 1 314 288 270 248 259 261 239 96 159 150 154 143 137 141 170 298 283 293 301 296 301 308 308 301 300 303 299 294 295 297 299 304 304 304 305 304 303
106 63 7 39 326 9 353 330 266 266 187 248 32 263 105 150 144 161 143 160 213 264 219 209 240 270 303 308 311 314 307 301 300 303 302 302 302 306 306 303 301 302 302 304
194 141 84 6 68 341 2 2 39 329 358 354 252 288 128 157 166 173 185 181 5 335 328 320 318 325 322 310 312 312 314 310 303 299 298 300 303 304 301 307 305 306 306 307
298 92 37 358 50 39 4 43 8 317 338 317 266 106 130 131 131 129 135 72 307 315 307 296 300 312 303 302 303 309 314 312 301 302 302 301 303 306 305 305 305 305 310 309
116 120 112 9 72 18 44 31 8 25 321 313 330 344 95 188 242 198 60 288 305 295 292 301 294 286 283 291 298 298 307 302 298 302 298 299 299 301 301 303 304 309 313 313
115 88 84 46 46 33 16 11 357 305 262 286 311 339 48 1 234 294 320 322 292 294 287 279 285 290 291 297 302 295 304 301 297 301 298 297 299 300 302 306 310 315 314 312
109 99 122 85 344 335 5 328 313 217 277 217 229 273 277 247 299 306 307 309 305 286 288 273 278 292 299 300 299 305 311 308 304 299 299 297 296 296 304 309 311 313 312 314
139 83 285 164 95 43 4 297 291 257 266 276 255 271 299 259 281 300 307 302 283 292 297 294 302 314 314 311 308 312 309 304 304 305 307 302 299 305 311 309 310 313 318 319
147 120 89 314 307 308 301 294 284 270 255 264 267 286 296 301 325 301 302 304 303 303 304 301 318 315 314 313 314 313 314 310 313 309 302 315 312 311 313 314 319 319 318 317
145 153 278 294 306 307 301 295 289 276 271 266 281 282 291 295 309 286 276 290 289 308 301 305 313 316 317 318 319 316 315 316 310 310 288 318 306 298 314 314 319 321 317 317
302 273 312 341 347 303 305 293 282 281 272 272 285 291 308 293 269 276 295 298 288 306 304 311 317 317 317 324 319 307 308 310 310 311 298 315 307 288 298 309 320 320 311 312
261 296 330 289 318 335 66 23 319 304 292 285 286 284 279 272 274 292 297 299 307 308 313 319 320 329 319 312 311 312 305 304 306 306 306 305 299 307 296 319 323 324 302 304
258 283 316 300 343 0 244 297 279 289 276 279 288 275 266 265 280 303 313 307 306 315 321 326 328 319 316 319 319 306 304 306 298 301 304 309 309 308 315 322 323 321 303 309
236 270 297 271 297 296 5 313 283 297 295 290 252 249 258 280 294 310 301 305 315 323 332 326 323 315 316 309 301 299 309 316 306 301 302 304 297 298 317 319 313 311 306 317
237 256 254 269 241 253 292 308 294 308 288 252 260 282 296 306 311 305 307 311 317 325 327 327 308 310 302 300 298 309 311 312 315 299 296 303 314 292 321 321 300 301 318 309
225 247 249 246 250 269 290 276 305 273 267 277 280 300 303 307 305 306 316 320 325 325 316 309 310 302 300 297 310 313 318 317 305 307 310 306 301 315 320 312 295 314 311 308
249 245 241 201 235 264 282 283 272 267 272 280 285 301 309 309 307 312 316 323 318 312 313 310 302 304 302 318 320 314 315 312 319 319 315 311 308 306 305 302 308 306 304 314
236 255 261 250 268 293 295 297 292 292 292 293 289 305 308 313 317 318 322 315 309 310 308 308 308 311 325 318 314 306 310 318 324 323 321 316 312 313 310 308 305 309 317 328
238 256 260 265 279 287 291 279 285 291 287 289 287 301 316 320 316 323 314 308 307 309 316 313 318 321 309 306 302 306 318 321 322 321 319 315 315 313 315 319 319 319 327 328
263 268 278 270 280 281 274 279 293 291 287 290 301 306 314 317 317 309 310 314 313 315 315 318 317 307 312 315 315 319 321 321 323 323 321 319 321 319 322 321 322 328 329 330
275 279 272 283 294 278 277 277 288 293 285 296 296 310 314 313 313 315 315 315 316 316 317 316 316 318 322 319 317 317 322 323 323 322 319 321 318 320 323 326 330 330 329 331